Regional Weather Roundup
Issued by NWS

Home | Current Version | Previous Version | Graphics & Text | Print | Product List | Glossary On
Versions: 1 2 3 4 5 6 7 8 9 10 11 12 13 14 15 16 17 18 19 20 21 22 23 24 25 26 27 28 29 30 31 32 33 34 35 36 37 38 39 40 41 42 43 44 45 46 47 48 49 50
000
ASUS44 KMEG 231410
RWRTN
TENNESSEE HOURLY STATE WEATHER ROUNDUP
NATIONAL WEATHER SERVICE MEMPHIS TN
800 AM CST MON JAN 23 2017

TNZ002-004-019-021-049-052-054-088>092-231500-
WEST TENNESSEE

CITY           SKY/WX    TMP DP  RH WIND       PRES   REMARKS
MEMPHIS INTL   PTCLDY    43  37  79 NW13      29.79R
NWS MEMPHIS      N/A     42 N/A N/A MISG        N/A
JACKSON        CLEAR     43  37  79 NW16G24   29.73R
DYERSBURG      MOCLDY    43  34  70 N14       29.75R
UNION CITY     PTCLDY    39  39 100 NW15      29.71R WCI  31
PARIS          CLEAR     39  34  81 CALM      29.69R
HUNTINGDON     CLEAR     43  37  81 NW7       29.70R
$$

TNZ008-025-027-028-033-062-065-066-231500-
NORTH MIDDLE TENNESSEE

CITY           SKY/WX    TMP DP  RH WIND       PRES   REMARKS
NASHVILLE      CLOUDY    47  42  83 NW21G30   29.57R
PORTLAND       CLOUDY    46  45  93 NW20G31   29.55R
CLARKSVILLE    CLOUDY    44  39  82 NW17G23   29.62R
SMYRNA         CLOUDY    49  44  83 NW16G23   29.56R
GALLATIN       CLOUDY    48  45  87 NW22G30   29.57R
CROSSVILLE     LGT RAIN  50  47  89 NW21G31   29.39R
$$

TNZ061-075-076-078-094-096-097-231500-
SOUTH MIDDLE TENNESSEE

CITY           SKY/WX    TMP DP  RH WIND       PRES   REMARKS
TULLAHOMA      CLOUDY    46  45  93 NW23      29.50R
WINCHESTER     CLOUDY    48  46  93 NW17      29.46R
MCMINNVILLE    CLOUDY    50  50 100 NW17G31     N/A
COLUMBIA       CLOUDY    46  46 100 NW10      29.57R
SHELBYVILLE    CLOUDY    50  46  87 NW16      29.53R
$$

TNZ017-018-042-046-047-231500-
NORTHEAST TENNESSEE

CITY           SKY/WX    TMP DP  RH WIND       PRES   REMARKS
TRI CITIES     CLOUDY    50  49  96 NE6       29.24R
ELIZABETHTON   DRIZZLE   50  50 100 CALM      29.23R
$$

TNZ012-013-036-069-073-074-231500-
CENTRAL EAST TENNESSEE

CITY           SKY/WX    TMP DP  RH WIND       PRES   REMARKS
KNOXVILLE      LGT RAIN  48  46  93 SW7       29.29R FOG
OAK RIDGE      LGT RAIN  50  48  93 CALM      29.32R
GATLINBURG     CLOUDY    46  46 100 W7        29.29R
MORRISTOWN     CLOUDY    50  50 100 NW6       29.27R
JACKSBORO      PTSUNNY   54  50  87 N6G15     29.34R
$$

TNZ083-085-099-231500-
SOUTHEAST TENNESSEE

CITY           SKY/WX    TMP DP  RH WIND       PRES   REMARKS
CHATTANOOGA    PTSUNNY   57  49  74 NW20G28   29.36R
$$

SKY/WX REPORTED AS FAIR MEANS FEW OR NO CLOUDS BELOW
12 THOUSAND FEET.





USA.gov is the U.S. government's official web portal to all federal, state and local government web resources and services.